Home > Weather > Mons > Past weeks

Flag for Belgium Past Weather in Mons, Belgium — Yesterday and Last 2 Weeks

Now
57 °F

Partly cloudy.


Feels Like: 57 °F
Forecast: 55 / 71 °F
Wind: 5 mph from Southwest

Location: Chievres

Current Time: Jul 30, 2016 at 7:39:12 AM

Latest Report: Jul 30, 2016 at 6:55 AM


Visibility: N/A

Pressure: 29.92 "Hg

Humidity: 94%

Dew Point: 55 °F

Location of MonsLocation

Past Weather in Mons — Graph

°F

Mons Temperature Yesterday

Maximum temperature yesterday: 72 °F (at 2:55 PM)
Minimum temperature yesterday: 59 °F (at 11:55 PM)
Average temperature yesterday: 66 °F

High & Low Weather Summary for the Past Weeks

 TemperatureHumidityPressure
High88 °F (Jul 19, 3:55 PM)100% (Jul 15, 4:25 AM)30.33 "Hg (Jul 15, 4:25 AM)
Low50 °F (Jul 15, 4:25 AM)38% (Jul 19, 3:55 PM)29.86 "Hg (Jul 20, 9:55 AM)
Average68 °F76%30.10 "Hg
* Reported Jul 15 4:25 AM — Jul 30 4:25 AM, Mons, Weather by CustomWeather, © 2016

Note: Actual official high and low records may vary slightly from our data, if they occured in-between our weather recording intervals... More about our weather records

Advertising

Mons Weather History for the Previous 24 Hours

Scroll right to see more
 ConditionsComfort  
Time TempWeatherWind HumidityBarometerVisibility
4:25 AM
Sat, Jul 30
57 °FPassing clouds.9 mph94%29.92 "HgN/A
3:55 AM57 °FPassing clouds.8 mph94%29.92 "HgN/A
3:25 AM57 °FPassing clouds.9 mph94%29.92 "HgN/A
2:55 AM55 °FCool.7 mph94%29.92 "HgN/A
2:25 AM55 °FCool.5 mph94%29.92 "HgN/A
1:55 AM55 °FCool.7 mph94%29.92 "HgN/A
12:55 AM57 °FCool.5 mph88%29.95 "HgN/A
12:25 AM59 °FCool.5 mph88%29.95 "HgN/A
11:55 PM
Fri, Jul 29
59 °FPassing clouds.6 mph88%29.92 "HgN/A
11:25 PM61 °FPartly cloudy.6 mph83%29.92 "HgN/A
10:55 PM61 °FPassing clouds.5 mph83%29.92 "HgN/A
10:25 PM63 °FMild.3 mph77%29.92 "HgN/A
9:55 PM64 °FMild.7 mph73%29.92 "HgN/A
9:25 PM66 °FScattered clouds.6 mph68%29.92 "HgN/A
8:55 PM66 °FMild.9 mph68%29.92 "HgN/A
8:25 PM68 °FScattered clouds.9 mph64%29.92 "HgN/A
7:55 PM70 °FPartly sunny.6 mph64%29.89 "HgN/A
6:55 PM70 °FPartly sunny.10 mph64%29.89 "HgN/A
6:25 PM72 °FScattered clouds.12 mph61%29.89 "HgN/A
5:55 PM70 °FScattered clouds.14 mph64%29.92 "HgN/A
5:25 PM72 °FScattered clouds.13 mph57%29.92 "HgN/A
4:55 PM72 °FPartly sunny.15 mph61%29.92 "HgN/A
4:25 PM72 °FPartly sunny.16 mph61%29.92 "HgN/A
3:55 PM72 °FPartly sunny.15 mph61%29.92 "HgN/A
3:25 PM72 °FPartly sunny.15 mph61%29.92 "HgN/A
2:55 PM72 °FPartly sunny.16 mph61%29.92 "HgN/A
2:25 PM70 °FPartly sunny.15 mph64%29.92 "HgN/A
1:55 PM70 °FPartly sunny.14 mph69%29.92 "HgN/A
1:25 PM70 °FScattered clouds.12 mph69%29.92 "HgN/A
12:55 PM66 °FBroken clouds.10 mph83%29.92 "HgN/A
12:25 PM63 °FLight rain. Broken clouds.15 mph88%29.92 "HgN/A
11:55 AM68 °FPartly sunny.7 mph78%29.92 "HgN/A
11:25 AM68 °FPartly sunny.12 mph78%29.92 "HgN/A
10:55 AM68 °FPartly sunny.10 mph78%29.92 "HgN/A
9:55 AM64 °FPartly sunny.8 mph94%29.92 "HgN/A
9:25 AM63 °FLight rain. Low clouds.8 mph100%29.92 "Hg5 mi
8:55 AM63 °FRain. Low clouds.8 mph94%29.92 "Hg2 mi
8:25 AM64 °FLow clouds.8 mph94%29.92 "HgN/A
7:55 AM64 °FPartly sunny.8 mph94%29.92 "HgN/A
7:25 AM63 °FPartly sunny.9 mph100%29.92 "Hg5 mi
Weather by CustomWeather, © 2016

See weather overviewHow to use our weather pages